Regional Weather Roundup
Issued by NWS

Home | Current Version | Previous Version | Text Only | Print | Product List | Glossary Off
Versions: 1 2 3 4 5 6 7 8 9 10 11 12 13 14 15 16 17 18 19 20 21 22 23 24 25 26 27 28 29 30 31 32 33 34 35 36 37 38 39 40 41 42 43 44 45 46 47 48 49 50

000
ASUS43 KDTX 011110
RWRMI
MICHIGAN HOURLY REGIONAL WEATHER ROUNDUP
NATIONAL WEATHER SERVICE DETROIT/PONTIAC MI
600 AM EST SUN FEB 01 2015

NOTE: "FAIR" INDICATES FEW OR NO CLOUDS BELOW 12,000 FEET WITH NO
SIGNIFICANT WEATHER AND/OR OBSTRUCTION TO VISIBILITY.

MIZ047>049-052>055-059>063-066>070-074>076-081>083-011200-
SOUTHEAST LOWER MICHIGAN

CITY           SKY/WX    TMP DP  RH WIND       PRES   REMARKS
ADRIAN         LGT SNOW  29  27  92 E8        30.13F FOG     WCI  21
ALMA           LGT SNOW  17  15  91 NE14      30.21F WCI   3
ANN ARBOR      LGT SNOW  26  23  88 NE6       30.14F FOG     WCI  19
BAD AXE        CLOUDY    19  15  84 N12       30.23R WCI   7
CARO           CLOUDY    19  15  86 N6        30.21F WCI  10
DETROIT CITY   LGT SNOW  27  22  81 NE8       30.18R WCI  19
DETROIT        LGT SNOW  27  24  89 NE6       30.17S FOG     WCI  20
FLINT          LGT SNOW  21  15  78 NE13      30.20R WCI   9
GROSSE ILE     LGT SNOW  27  25  93 NE10      30.15S WCI  17
HILLSDALE      LGT SNOW  29  29  99 E8        30.09F WCI  21
HOWELL         LGT SNOW  24  22  93 NE7       30.14F WCI  16

CITY           SKY/WX    TMP DP  RH WIND       PRES   REMARKS
JACKSON        LGT SNOW  25  22  88 NE8       30.12F VSB 1   WCI  16
LAMBERTVILLE   LGT SNOW  32  28  86 E6        30.15S WCI  26
LANSING        LGT SNOW  20  16  84 NE15G23   30.17S FOG     WCI   6
LAPEER         LGT SNOW  19  16  88 NE6       30.19F WCI  11
MASON          LGT SNOW  23  20  89 NE9       30.14F WCI  13
MONROE         LGT SNOW  28  27  93 E8        30.14S WCI  20
MT. CLEMENS    FLURRIES  23  20  88 N10       30.17S WCI  13
PONTIAC        LGT SNOW  21  17  84 NE10      30.16R FOG     WCI  10
PORT HOPE        N/A     20  13  74 N21       30.22S WCI   4
PORT HURON     LGT SNOW  23  21  93 NW3       30.20R
TRI CITIES     LGT SNOW  19  12  74 NE17      30.23S WCI   4
TROY           LGT SNOW  26  22  84 NE12      30.20R WCI  15
SAGINAW HB     LGT SNOW  19  16  86 N15       30.23S WCI   5
$$
MIZ043>046-050>051-056>058-064>065-071>073-077>080-011200-
SOUTHWEST LOWER MICHIGAN

CITY           SKY/WX    TMP DP  RH WIND       PRES   REMARKS
BATTLE CREEK   LGT SNOW  26  22  84 E10       30.11S VSB 1   WCI  16
BENTON HARBOR  LGT SNOW  28  28 100 E10       30.07F FOG     WCI  19
BIG RAPIDS     LGT SNOW  15  11  86 E8        30.18S WCI   4
COLDWATER      LGT SNOW  29  28  96 E6        30.09F WCI  23
FREMONT        LGT SNOW  18  14  86 E13       30.18R WCI   4
HOLLAND        LGT SNOW  25  21  85 NE10      30.13S VSB 1   WCI  15
GRAND RAPIDS   LGT SNOW  22  18  85 E16       30.15R FOG     WCI   8
IONIA          LGT SNOW  22  19  88 NE10      30.15S WCI  12
KALAMAZOO      LGT SNOW  27  24  89 E8        30.10F VSB 1   WCI  19
LUDINGTON      CLOUDY    18   8  65 NE13G21   30.20F WCI   5
MARSHALL       LGT SNOW  24  22  92 NE7       30.11F WCI  16
MOUNT PLEASANT LGT SNOW  16  11  80 NE8       30.21S WCI   6
MUSKEGON       LGT SNOW  21  16  81 NE10      30.16S WCI  10
SOUTH HAVEN    LGT SNOW  28  25  89 E9        30.09F VSB 1   WCI  19
$$
MIZ016>042-011200-
NORTHERN LOWER MICHIGAN

CITY           SKY/WX    TMP DP  RH WIND       PRES   REMARKS
ALPENA         CLOUDY     7   1  76 NE13      30.34R WCI  -9
BEAVER ISLAND  CLOUDY     2  -4  77 NE8       30.35R WCI -12
BELLAIRE       CLOUDY    10   2  70 N8        30.30F WCI  -2
CADILLAC       CLOUDY    12   5  74 NE12      30.16F WCI  -2
CHARLEVOIX     CLOUDY     7   1  78 NE13      30.34S WCI -10
FRANKFORT      CLOUDY    15   9  77 NE9       30.24S WCI   3
GAYLORD        CLOUDY     6   2  83 NE9       30.23S WCI  -8
GRAYLING       CLOUDY    10   5  80 NE10      30.23F WCI  -4
HARBOR SPRINGS CLOUDY     4  -3  72 NE6       30.32S WCI  -6
HOUGHTON LAKE  CLOUDY    11   5  77 NE10      30.21F WCI  -3
MANISTEE       CLOUDY    16   5  62 NE15G21   30.22F WCI   1
OSCODA         CLOUDY    13   7  76 N15       30.27F WCI  -3
PELLSTON       MOCLDY     4  -3  73 NE8       30.35R WCI  -9
TRAVERSE CITY  CLOUDY    13   4  67 NE13      30.27S WCI  -2
$$
MIZ007>008-015-011200-
EASTERN UPPER MICHIGAN

CITY           SKY/WX    TMP DP  RH WIND       PRES   REMARKS
KINROSS        MOCLDY    -8 -15  71 NE8       30.38S WCI -23
MACKINAC ISLAN MOCLDY     0  -8  67 NE13      30.36R WCI -18
NEWBERRY       MOCLDY    -6 -11  81 NE7       30.36S WCI -21
S. S. MARIE    PTCLDY    -9 -19  61 NE6       30.40R WCI -22
MUNISING         N/A      9   1  70 NE10      30.36S WCI  -5
$$
MIZ004>006-011>014-085-011200-
CENTRAL UPPER MICHIGAN

CITY           SKY/WX    TMP DP  RH WIND       PRES   REMARKS
MANISTIQUE     CLOUDY     5  -2  75 NE12      30.34S WCI -11
ESCANABA       CLOUDY    10   1  67 NE12G17   30.33S WCI  -4
MENOMINEE      CLOUDY    12   3  67 NE9       30.28S WCI   0
SAWYER-GWINN   LGT SNOW   9   4  81 NE8       30.29S WCI  -3
$$
MIZ001>003-009>011-084-011200-
WESTERN UPPER MICHIGAN

CITY           SKY/WX    TMP DP  RH WIND       PRES   REMARKS
IRON MOUNTAIN  CLOUDY     8   2  76 N6        30.27S WCI  -2
HOUGHTON       CLOUDY     2  -3  80 NE8       30.35S WCI -12
COPPER HARBOR    N/A     10   1  67 E7        30.40S WCI  -1
IRONWOOD       CLOUDY     3   0  85 E3        30.29S
$$

ABBREVIATIONS USED IN REMARKS
   TC - TEMPERATURE IN CELSIUS
  WCI - WIND CHILL INDEX
   HX - HEAT INDEX
  VSB - VISIBILITY




USA.gov is the U.S. government's official web portal to all federal, state and local government web resources and services.